Dewpoint
69 65 63 64 56 52 42 43 38 38 36 36 33 33 32 34 36 42 49 50 48 42 48 51 55 56 56 55 55 55 53 54 56 55 54 54 54 54 58 57 55 56 55 58 56 55 54 55 55
63 58 61 60 49 42 41 40 37 36 34 31 30 31 31 31 40 44 46 47 41 37 48 50 55 55 55 55 54 54 54 55 54 54 54 54 54 55 56 54 54 54 55 54 55 54 54 54 55
64 56 54 52 44 40 40 39 36 33 31 32 30 30 32 35 42 43 44 42 37 39 50 51 55 55 54 54 53 53 53 53 54 53 54 53 53 54 54 54 54 54 53 53 53 53 54 54 54
54 57 49 43 40 40 38 37 35 30 30 30 30 28 30 38 39 42 41 36 36 43 51 52 54 53 53 53 52 53 53 53 53 53 53 52 53 54 54 53 54 53 53 53 53 53 52 53 53
56 52 44 42 40 38 36 36 33 30 29 28 29 30 33 33 41 40 36 33 37 46 49 51 54 52 52 51 51 53 51 52 52 51 51 52 53 53 53 53 53 53 53 53 53 53 52 52 52
52 47 40 38 37 37 35 34 32 30 28 28 28 29 32 33 39 35 32 32 37 40 49 49 51 52 50 50 51 52 50 51 50 48 48 51 52 51 52 52 52 52 52 52 52 51 50 50 50
50 48 40 35 37 36 33 33 31 30 31 28 30 28 30 31 38 32 29 31 33 37 42 47 48 48 49 49 49 51 48 48 47 45 44 47 47 48 49 50 50 51 51 50 49 48 47 45 47
50 44 36 34 34 37 34 34 34 33 29 32 29 27 28 31 35 30 28 29 31 33 36 37 45 46 45 46 49 48 47 43 42 40 40 42 42 42 46 45 48 48 48 48 47 46 44 40 41
50 44 34 34 35 38 35 34 35 31 29 31 28 27 30 34 33 29 27 27 29 30 30 30 30 32 38 46 45 46 45 41 41 40 39 41 39 36 43 42 43 45 44 43 43 43 42 42 41
41 43 39 37 37 36 36 34 31 31 29 28 26 27 32 33 30 28 28 26 28 30 30 29 30 33 35 34 40 40 38 40 37 35 34 35 34 34 37 41 39 38 42 41 42 42 41 37 33
34 37 37 34 37 35 35 33 33 29 30 27 27 27 32 32 30 28 26 26 28 30 33 30 32 34 35 33 38 39 38 38 37 35 36 36 35 37 38 40 38 38 39 37 38 36 35 32 32
32 30 29 37 35 33 31 31 30 29 32 27 30 27 31 31 29 28 26 24 25 29 34 30 33 34 35 37 35 37 36 37 37 37 36 37 38 35 34 36 37 37 38 36 37 37 34 32 30
28 27 29 30 32 31 30 29 27 27 28 27 28 28 29 30 29 28 25 23 23 26 34 32 33 34 34 34 37 34 35 33 37 37 36 36 37 36 35 34 36 36 37 36 37 36 35 34 32
29 29 24 28 28 30 29 27 29 28 28 27 27 28 27 28 28 27 25 21 20 23 31 33 32 34 34 35 35 35 33 35 35 36 36 32 34 34 33 34 35 36 36 36 36 35 35 35 33
28 25 25 25 25 28 29 25 24 26 24 25 25 26 26 27 27 25 25 21 18 20 27 31 32 35 36 35 37 37 37 34 36 36 34 32 31 33 32 34 35 36 36 36 36 35 36 36 35
25 26 25 26 25 27 27 22 27 23 23 24 23 23 26 26 26 24 25 22 18 20 22 29 30 33 36 36 38 38 37 37 37 36 35 33 33 33 34 35 35 36 37 36 36 36 36 36 36
25 16 15 26 23 25 23 23 23 22 21 21 21 21 23 25 25 24 24 22 19 19 21 26 30 29 34 35 37 38 35 36 37 36 35 34 34 34 34 35 35 34 36 36 36 36 36 36 36
16 12 12 15 23 22 21 21 22 22 21 20 19 19 20 23 24 24 25 23 22 21 21 25 29 29 31 36 35 37 36 36 36 36 36 35 36 35 34 36 35 35 36 37 36 35 36 36 36
18 13 14 17 21 21 20 19 18 18 22 22 21 18 19 19 23 24 24 24 22 24 24 26 27 29 31 34 34 34 35 36 36 36 35 35 35 36 35 37 36 37 36 36 35 35 35 36 36
20 16 16 19 21 17 17 17 19 19 21 24 24 21 19 19 19 22 24 23 22 21 24 27 28 31 31 34 34 35 34 36 36 37 35 35 35 36 36 37 37 36 37 36 36 35 35 36 36
18 19 15 15 19 19 18 19 17 18 19 21 22 24 22 20 19 20 22 24 25 21 23 27 29 31 32 33 36 36 35 38 37 37 37 36 35 37 37 36 36 36 36 37 36 36 35 35 36
20 20 20 20 20 16 16 13 14 16 18 19 24 22 22 21 22 20 22 24 25 24 25 27 29 31 31 34 34 34 34 35 36 37 37 38 36 36 37 37 36 35 37 36 36 37 37 36 35
22 25 22 24 21 19 20 19 24 14 14 16 18 21 22 22 22 22 24 25 26 27 28 28 29 31 32 33 34 35 35 37 38 38 38 38 38 36 36 36 36 36 36 35 35 34 34 35 35
21 21 22 24 23 23 17 11 20 15 17 15 16 18 21 21 21 23 24 26 27 29 32 32 29 31 33 35 36 35 36 37 38 38 38 40 39 39 37 36 36 36 36 36 36 35 35 35 35
23 22 25 26 25 20 17 15 15 18 19 20 19 16 18 20 23 24 25 27 30 32 35 35 34 31 33 35 36 38 37 38 37 38 39 38 39 38 38 37 37 37 37 37 37 36 36 36 36
19 21 20 16 16 16 19 16 21 16 16 16 17 20 21 21 24 28 29 31 32 33 36 37 34 34 33 33 35 37 39 40 40 39 39 39 38 38 38 39 38 38 38 39 38 38 38 37 37
22 23 24 19 16 19 22 17 17 16 14 19 23 23 24 24 26 30 32 33 34 35 36 36 37 35 35 35 35 37 38 39 39 40 40 40 38 38 38 38 39 38 38 38 38 38 37 36 36
21 19 22 24 24 18 17 22 17 19 14 19 20 22 25 27 27 29 28 30 33 33 34 37 36 36 37 36 36 35 37 37 39 39 39 40 39 38 37 38 38 39 38 37 37 38 37 36 37
19 18 18 19 18 21 19 21 17 14 16 16 17 21 23 25 28 28 28 27 30 31 32 34 34 35 34 37 36 36 36 37 37 38 39 39 39 39 37 38 38 38 38 37 36 36 36 36 35
18 17 17 25 23 19 22 22 13 13 15 19 18 20 21 24 27 27 27 27 27 30 32 32 32 32 33 34 34 35 36 36 36 36 37 38 38 38 38 37 36 37 37 36 35 35 35 35 35
Lifted_Index
-3 -3 -3 -3 -3 -2 -0 1 3 4 5 7 8 8 8 8 8 8 9 11 12 14 13 12 12 11 11 12 12 12 12 12 12 12 12 12 12 12 11 11 11 11 11 10 11 12 13 13 14
-3 -2 -2 -2 -2 -1 0 1 3 4 6 8 8 8 9 9 9 10 10 12 13 14 13 12 11 11 11 11 12 12 12 12 12 12 12 12 12 11 11 11 11 11 11 11 11 12 12 12 13
-2 -1 -1 -1 -1 -0 1 2 3 5 7 9 9 9 10 10 11 11 12 13 14 14 12 11 11 11 11 11 11 12 12 12 12 12 12 12 11 11 11 12 12 11 11 11 11 11 12 12 12
-1 -1 -0 -0 -0 1 2 3 5 7 8 9 9 10 10 11 12 12 13 14 14 13 12 11 11 11 11 12 12 12 12 12 12 12 12 12 11 11 11 12 12 12 12 12 12 12 12 12 12
-0 -0 -0 -0 0 1 3 4 6 8 9 10 10 10 11 12 13 13 14 15 14 13 12 12 12 12 12 12 12 12 12 13 13 13 13 12 12 11 11 12 12 12 12 12 12 13 13 13 12
-0 0 0 0 1 2 4 5 7 8 9 10 10 10 11 13 13 14 15 16 15 13 12 12 12 12 12 12 12 12 13 13 14 15 14 13 13 13 12 12 12 12 13 13 13 13 14 14 14
1 1 1 1 2 3 4 6 7 8 9 10 10 11 11 12 14 15 16 16 15 15 14 13 13 13 13 13 13 13 14 15 15 16 16 15 14 14 14 14 13 13 13 14 14 14 15 15 16
2 2 3 3 3 3 5 6 8 9 10 10 11 11 11 12 14 15 16 16 16 16 15 15 14 14 14 14 14 14 15 16 17 17 17 16 16 15 15 15 15 15 15 15 15 15 16 16 17
3 3 3 4 4 4 6 7 9 10 10 11 11 11 11 12 13 15 15 16 16 17 16 16 16 16 15 15 15 15 16 17 17 18 17 17 17 17 17 17 16 16 16 16 16 16 16 17 17
4 4 4 5 5 6 7 8 9 10 10 11 11 12 12 12 13 14 15 15 16 16 17 17 17 17 16 16 16 17 17 18 18 18 18 18 17 17 17 17 17 17 17 17 17 17 17 17 18
5 5 6 7 7 8 9 9 10 10 10 10 11 11 12 13 13 14 14 15 16 16 17 17 17 17 17 17 17 17 18 18 18 18 18 18 18 18 18 18 18 18 17 17 17 17 18 18 18
6 7 8 8 9 9 10 10 10 10 10 10 10 11 12 13 13 14 14 15 16 16 16 17 17 17 17 17 17 17 18 18 18 18 18 18 18 18 18 18 18 18 18 18 18 18 18 18 18
7 8 8 9 9 10 10 9 10 10 10 10 11 11 12 13 13 14 14 15 15 16 16 16 17 17 17 17 17 17 18 18 18 18 19 19 18 18 18 18 18 18 18 18 18 18 18 18 18
7 7 8 8 9 9 9 9 9 10 10 10 11 11 12 13 13 14 14 15 15 16 16 16 17 17 17 17 17 17 18 18 18 18 19 19 19 19 19 19 19 19 19 19 18 18 18 18 18
7 6 6 7 8 8 8 7 8 9 10 10 10 11 11 12 13 14 14 15 15 16 16 16 17 17 17 17 17 17 18 18 18 18 19 19 19 19 19 19 19 19 19 19 19 19 18 18 18
6 5 5 6 7 7 6 6 7 9 9 9 9 10 10 11 12 13 14 15 15 16 16 17 17 17 17 17 17 17 18 18 18 18 19 19 19 19 19 19 19 19 19 19 19 19 19 18 18
5 4 4 5 6 6 5 5 6 8 9 8 8 9 9 10 12 13 14 15 15 16 16 17 17 17 17 17 17 17 18 18 18 18 18 19 19 19 19 19 19 19 19 19 19 19 19 18 18
4 4 4 5 5 6 5 5 6 7 7 7 8 8 9 9 11 13 14 15 15 16 16 16 17 17 17 17 17 17 17 18 18 18 18 19 19 19 19 19 19 19 19 19 19 19 19 18 18
5 5 5 5 6 5 4 4 5 6 6 6 7 7 8 9 11 12 13 14 15 15 16 16 16 16 17 17 17 17 17 18 18 18 18 18 19 19 19 19 18 18 18 18 18 18 18 18 18
6 6 5 6 6 6 5 4 5 5 6 6 6 7 8 9 10 11 12 13 14 14 15 15 16 16 16 16 16 17 17 17 18 18 18 18 18 18 19 18 18 18 18 18 18 18 18 18 18
6 6 6 6 6 6 5 4 4 5 6 6 7 7 8 9 10 11 11 12 13 13 14 14 15 15 15 16 16 16 16 16 17 17 17 18 18 18 18 18 18 18 18 18 18 18 18 17 17
7 7 7 6 5 5 4 4 4 5 6 6 7 7 8 9 10 11 11 12 12 13 13 14 14 14 15 15 15 15 15 15 16 16 17 17 18 18 18 18 18 18 18 18 18 18 18 18 17
8 8 8 6 5 4 4 4 5 6 6 6 7 8 8 9 10 10 11 12 12 12 13 13 13 14 14 15 15 15 15 15 15 16 16 17 17 17 18 18 18 18 18 18 18 18 18 18 18
8 7 6 5 4 3 4 4 5 6 6 7 7 8 8 9 9 10 11 11 12 12 12 12 12 13 14 15 15 15 15 15 15 16 16 16 16 17 17 17 18 18 18 18 18 18 18 18 18
8 6 4 2 2 2 3 4 4 6 7 7 8 8 8 9 10 10 11 11 11 11 12 12 12 12 13 14 14 14 14 14 15 15 16 16 16 16 16 17 17 17 17 17 17 17 17 17 17
6 5 3 2 1 2 3 4 5 6 7 7 8 8 9 9 10 10 11 11 11 11 12 12 11 12 12 13 13 14 14 14 14 15 16 16 16 16 16 16 16 17 17 17 17 17 17 17 17
7 6 5 3 2 2 3 4 5 6 7 7 8 9 9 9 10 10 11 11 11 11 12 12 12 12 12 12 13 13 13 13 14 14 15 16 16 16 16 16 16 16 16 17 17 17 17 17 17
7 7 5 4 2 1 2 4 5 6 7 8 8 9 9 10 10 11 11 11 11 11 12 12 12 12 12 12 13 13 13 13 13 14 14 15 15 16 16 16 16 16 16 16 16 16 16 17 17
7 7 6 4 3 2 2 4 6 7 8 8 9 9 10 10 11 11 11 11 11 11 11 12 12 12 12 13 13 13 13 13 13 13 14 14 15 15 16 16 16 15 16 16 16 16 16 16 16
7 7 6 5 3 3 3 4 6 8 8 9 9 9 10 10 11 11 11 11 11 11 11 11 11 12 12 13 13 13 13 13 13 13 14 14 14 15 15 16 16 16 15 15 15 15 16 16 16